Myrtle Beach, SC

10:51 PM EDT on July 27, 2017 (GMT -0400)
Myrtle Beach International

Weather History for KMYR - December, 2013

Change the Weather History Date:

Friday, December 27, 2013

  Actual Average Record
Temperature  
Mean Temperature 44 °F -  
Max Temperature 53 °F 53 °F 78 °F (2015)
Min Temperature 35 °F 33 °F 24 °F (2004)
Degree Days  
Heating Degree Days 21    
Moisture  
Dew Point 33 °F    
Average Humidity 74    
Maximum Humidity 93    
Minimum Humidity 38    
Precipitation  
Precipitation 0.00 in - - ()
Sea Level Pressure  
Sea Level Pressure 30.38 in    
Wind  
Wind Speed 7 mph (North)    
Max Wind Speed 17 mph    
Max Gust Speed -    
Visibility 10 miles    
Events      
Averages and records for this station are not official NWS values.
T = Trace of Precipitation, MM = Missing Value Source: NWS Daily Summary

Daily Weather History Graph

Daily Weather History Graph

Search for Another Location

Airport or City:

Trip Planner

Search our weather history database for the weather conditions in past years. The results will help you decide how hot, cold, wet, or windy it might be!

Date:

Astronomy

Dec. 27, 2013 Rise Set
Actual Time 7:19 AM EST 5:14 PM EST
Civil Twilight 6:51 AM EST 5:42 PM EST
Nautical Twilight 6:20 AM EST 6:13 PM EST
Astronomical Twilight 5:49 AM EST 6:44 PM EST
Moon 1:58 AM EST (12/27) 1:16 PM EST (12/27)
Length of Visible Light 10h 51m
Length of Day
9h 55m
Waning Crescent, 28% of the Moon is Illuminated
Dec 27
Waning Crescent
Jan 1
New
Jan 7
First Quarter
Jan 15
Full
Jan 24
Last Quarter

Hourly Weather History & Observations

Time (EST) Temp. Windchill Dew Point Humidity Pressure Visibility Wind Dir Wind Speed Gust Speed Precip Events Conditions
12:15 AM 41.0 °F 36.4 °F 37.4 °F 87% 30.34 in 10.0 mi North 6.9 mph - N/A   Partly Cloudy
12:35 AM 39.2 °F 33.6 °F 37.4 °F 93% 30.34 in 10.0 mi North 8.1 mph - N/A   Clear
12:55 AM 39.2 °F 34.2 °F 35.6 °F 87% 30.34 in 10.0 mi North 6.9 mph - N/A   Clear
1:15 AM 39.2 °F 37.0 °F 35.6 °F 87% 30.34 in 10.0 mi North 3.5 mph - N/A   Clear
1:35 AM 39.2 °F 34.2 °F 37.4 °F 93% 30.34 in 10.0 mi North 6.9 mph - N/A   Clear
1:55 AM 39.2 °F 33.6 °F 35.6 °F 87% 30.33 in 10.0 mi North 8.1 mph - N/A   Clear
2:15 AM 39.2 °F 33.6 °F 35.6 °F 87% 30.34 in 10.0 mi North 8.1 mph - N/A   Clear
2:35 AM 39.2 °F 34.2 °F 35.6 °F 87% 30.34 in 10.0 mi North 6.9 mph - N/A   Clear
2:55 AM 39.2 °F 37.0 °F 35.6 °F 87% 30.35 in 10.0 mi North 3.5 mph - N/A   Clear
3:15 AM 39.2 °F 35.9 °F 35.6 °F 87% 30.35 in 10.0 mi North 4.6 mph - N/A   Clear
3:35 AM 39.2 °F 33.6 °F 33.8 °F 81% 30.36 in 10.0 mi North 8.1 mph - N/A   Clear
3:55 AM 39.2 °F 34.2 °F 32.0 °F 75% 30.35 in 10.0 mi NNW 6.9 mph - N/A   Clear
4:15 AM 37.4 °F 32.8 °F 33.8 °F 87% 30.36 in 10.0 mi North 5.8 mph - N/A   Clear
4:35 AM 37.4 °F 32.1 °F 33.8 °F 87% 30.36 in 10.0 mi North 6.9 mph - N/A   Clear
4:55 AM 37.4 °F 32.1 °F 32.0 °F 81% 30.36 in 10.0 mi North 6.9 mph - N/A   Clear
5:15 AM 37.4 °F 33.8 °F 33.8 °F 87% 30.37 in 10.0 mi North 4.6 mph - N/A   Clear
5:35 AM 37.4 °F 32.8 °F 33.8 °F 87% 30.37 in 10.0 mi North 5.8 mph - N/A   Clear
5:50 AM 37.4 °F 29.8 °F 33.8 °F 87% 30.36 in 10.0 mi North 11.5 mph - N/A   Clear
5:55 AM 37.4 °F 31.4 °F 30.2 °F 75% 30.37 in 10.0 mi North 8.1 mph - N/A   Clear
6:45 AM 37.4 °F 29.8 °F 30.2 °F 75% 30.37 in 10.0 mi North 11.5 mph - N/A   Clear
7:45 AM 35.6 °F 27.5 °F 30.2 °F 81% 30.39 in 10.0 mi North 11.5 mph - N/A   Clear
8:45 AM 41.0 °F 33.5 °F 33.8 °F 76% 30.40 in 10.0 mi North 13.8 mph - N/A   Clear
9:45 AM 44.6 °F 38.8 °F 33.8 °F 66% 30.43 in 10.0 mi NNE 11.5 mph - N/A   Clear
10:45 AM 48.2 °F - 33.8 °F 58% 30.43 in 10.0 mi NNE 11.5 mph - N/A   Clear
11:45 AM 51.8 °F - 30.2 °F 44% 30.40 in 10.0 mi NNE 17.3 mph - N/A   Clear
12:50 PM 53.6 °F - 28.4 °F 38% 30.38 in 10.0 mi NE 12.7 mph - N/A   Clear
1:45 PM 53.6 °F - 28.4 °F 38% 30.37 in 10.0 mi NNE 10.4 mph - N/A   Partly Cloudy
2:50 PM 53.6 °F - 30.2 °F 41% 30.36 in 10.0 mi NNE 9.2 mph - N/A   Scattered Clouds
3:48 PM 51.8 °F - 30.2 °F 44% 30.36 in 10.0 mi North 9.2 mph - N/A   Scattered Clouds
4:45 PM 51.8 °F - 32.0 °F 47% 30.37 in 10.0 mi NNE 6.9 mph - N/A   Clear
5:45 PM 46.4 °F 42.9 °F 32.0 °F 57% 30.40 in 10.0 mi NNW 6.9 mph - N/A   Clear
6:45 PM 42.8 °F - 33.8 °F 70% 30.41 in 10.0 mi Calm Calm - N/A   Clear
7:45 PM 41.0 °F - 33.8 °F 76% 30.41 in 10.0 mi Calm Calm - N/A   Clear
8:45 PM 39.2 °F 35.0 °F 33.8 °F 81% 30.41 in 10.0 mi Variable 5.8 mph - N/A   Clear
9:45 PM 39.2 °F 34.2 °F 33.8 °F 81% 30.41 in 10.0 mi NNE 6.9 mph - N/A   Clear
10:55 PM 37.4 °F 32.1 °F 30.2 °F 75% 30.42 in 10.0 mi NNE 6.9 mph - N/A   Clear
11:15 PM 37.4 °F 34.9 °F 30.2 °F 75% 30.42 in 10.0 mi NNE 3.5 mph - N/A   Clear
11:35 PM 37.4 °F 34.9 °F 30.2 °F 75% 30.41 in 10.0 mi NNW 3.5 mph - N/A   Clear
11:55 PM 37.4 °F 33.8 °F 30.2 °F 75% 30.41 in 10.0 mi North 4.6 mph - N/A   Clear